Year,Month,Day,Hour,Minute,Value (Times are PST for temperature in C)
2015,10,10,00,00,13.80
2015,10,10,00,01,13.80
2015,10,10,00,02,13.80
2015,10,10,00,03,13.80
2015,10,10,00,04,13.80
2015,10,10,00,05,13.80
2015,10,10,00,06,13.80
2015,10,10,00,07,13.80
2015,10,10,00,08,13.80
2015,10,10,00,09,13.80
2015,10,10,00,10,13.70
2015,10,10,00,11,13.70
2015,10,10,00,12,13.70
2015,10,10,00,13,13.70
2015,10,10,00,14,13.70
2015,10,10,00,15,13.70
2015,10,10,00,16,13.70
2015,10,10,00,17,13.70
2015,10,10,00,18,13.70
2015,10,10,00,19,13.70
2015,10,10,00,20,13.70
2015,10,10,00,21,13.70
2015,10,10,00,22,13.70
2015,10,10,00,23,13.70
2015,10,10,00,24,13.70
2015,10,10,00,25,13.80
2015,10,10,00,26,13.80
2015,10,10,00,27,13.80
2015,10,10,00,28,13.80
2015,10,10,00,29,13.80
2015,10,10,00,30,13.80
2015,10,10,00,31,13.80
2015,10,10,00,32,13.80
2015,10,10,00,33,13.80
2015,10,10,00,34,13.80
2015,10,10,00,35,13.80
2015,10,10,00,36,13.80
2015,10,10,00,37,13.80
2015,10,10,00,38,13.80
2015,10,10,00,39,13.90
2015,10,10,00,40,13.90
2015,10,10,00,41,13.90
2015,10,10,00,42,13.90
2015,10,10,00,43,13.90
2015,10,10,00,44,13.90
2015,10,10,00,45,13.90
2015,10,10,00,46,13.90
2015,10,10,00,47,13.90
2015,10,10,00,48,13.90
2015,10,10,00,49,13.90
2015,10,10,00,50,13.90
2015,10,10,00,51,13.90
2015,10,10,00,52,13.90
2015,10,10,00,53,13.90
2015,10,10,00,54,13.90
2015,10,10,00,55,13.90
2015,10,10,00,56,13.90
2015,10,10,00,57,13.90
2015,10,10,00,58,13.90
2015,10,10,00,59,13.90
2015,10,10,01,00,13.90
2015,10,10,01,01,13.90
2015,10,10,01,02,13.90
2015,10,10,01,03,13.90
2015,10,10,01,04,13.90
2015,10,10,01,05,13.90
2015,10,10,01,06,13.90
2015,10,10,01,07,13.90
2015,10,10,01,08,13.90
2015,10,10,01,09,13.90
2015,10,10,01,10,13.90
2015,10,10,01,11,13.90
2015,10,10,01,12,13.90
2015,10,10,01,13,13.90
2015,10,10,01,14,13.90
2015,10,10,01,15,13.90
2015,10,10,01,16,13.90
2015,10,10,01,17,13.90
2015,10,10,01,18,13.90
2015,10,10,01,19,13.90
2015,10,10,01,20,14.00
2015,10,10,01,21,14.00
2015,10,10,01,22,14.00
2015,10,10,01,23,14.00
2015,10,10,01,24,14.00
2015,10,10,01,25,13.90
2015,10,10,01,26,13.90
2015,10,10,01,27,13.90
2015,10,10,01,28,13.90
2015,10,10,01,29,13.90
2015,10,10,01,30,13.90
2015,10,10,01,31,13.90
2015,10,10,01,32,13.90
2015,10,10,01,33,13.90
2015,10,10,01,34,13.90
2015,10,10,01,35,13.90
2015,10,10,01,36,13.90
2015,10,10,01,37,13.90
2015,10,10,01,38,13.90
2015,10,10,01,39,13.90
2015,10,10,01,40,13.90
2015,10,10,01,41,13.90
2015,10,10,01,42,13.90
2015,10,10,01,43,13.90
2015,10,10,01,44,13.90
2015,10,10,01,45,13.90
2015,10,10,01,46,13.90
2015,10,10,01,47,13.90
2015,10,10,01,48,13.90
2015,10,10,01,49,13.90
2015,10,10,01,50,13.90
2015,10,10,01,51,13.90
2015,10,10,01,52,13.90
2015,10,10,01,53,13.90
2015,10,10,01,54,13.90
2015,10,10,01,55,13.90
2015,10,10,01,56,13.90
2015,10,10,01,57,13.90
2015,10,10,01,58,14.00
2015,10,10,01,59,14.00
2015,10,10,02,00,13.90
2015,10,10,02,01,13.90
2015,10,10,02,02,13.90
2015,10,10,02,03,13.90
2015,10,10,02,04,13.90
2015,10,10,02,05,13.90
2015,10,10,02,06,13.90
2015,10,10,02,07,13.90
2015,10,10,02,08,14.00
2015,10,10,02,09,14.00
2015,10,10,02,10,14.00
2015,10,10,02,11,14.00
2015,10,10,02,12,14.00
2015,10,10,02,13,14.10
2015,10,10,02,14,14.10
2015,10,10,02,15,14.10
2015,10,10,02,16,14.10
2015,10,10,02,17,14.10
2015,10,10,02,18,14.10
2015,10,10,02,19,14.10
2015,10,10,02,20,14.10
2015,10,10,02,21,14.10
2015,10,10,02,22,14.10
2015,10,10,02,23,14.10
2015,10,10,02,24,14.10
2015,10,10,02,25,14.10
2015,10,10,02,26,14.10
2015,10,10,02,27,14.10
2015,10,10,02,28,14.10
2015,10,10,02,29,14.10
2015,10,10,02,30,14.10
2015,10,10,02,31,14.10
2015,10,10,02,32,14.10
2015,10,10,02,33,14.10
2015,10,10,02,34,14.10
2015,10,10,02,35,14.10
2015,10,10,02,36,14.10
2015,10,10,02,37,14.10
2015,10,10,02,38,14.10
2015,10,10,02,39,14.00
2015,10,10,02,40,14.00
2015,10,10,02,41,14.00
2015,10,10,02,42,14.00
2015,10,10,02,43,14.00
2015,10,10,02,44,14.00
2015,10,10,02,45,14.00
2015,10,10,02,46,14.00
2015,10,10,02,47,14.00
2015,10,10,02,48,14.00
2015,10,10,02,49,14.00
2015,10,10,02,50,14.00
2015,10,10,02,51,14.00
2015,10,10,02,52,14.00
2015,10,10,02,53,14.00
2015,10,10,02,54,14.00
2015,10,10,02,55,14.00
2015,10,10,02,56,14.00
2015,10,10,02,57,14.00
2015,10,10,02,58,14.00
2015,10,10,02,59,14.00
2015,10,10,03,00,14.00
2015,10,10,03,01,14.00
2015,10,10,03,02,14.00
2015,10,10,03,03,14.00
2015,10,10,03,04,14.00
2015,10,10,03,05,14.00
2015,10,10,03,06,14.00
2015,10,10,03,07,13.90
2015,10,10,03,08,13.90
2015,10,10,03,09,13.90
2015,10,10,03,10,13.90
2015,10,10,03,11,13.90
2015,10,10,03,12,13.90
2015,10,10,03,13,13.90
2015,10,10,03,14,13.90
2015,10,10,03,15,13.90
2015,10,10,03,16,13.90
2015,10,10,03,17,13.90
2015,10,10,03,18,14.00
2015,10,10,03,19,13.90
2015,10,10,03,20,13.90
2015,10,10,03,21,14.00
2015,10,10,03,22,13.90
2015,10,10,03,23,14.00
2015,10,10,03,24,14.00
2015,10,10,03,25,14.00
2015,10,10,03,26,14.00
2015,10,10,03,27,14.00
2015,10,10,03,28,14.00
2015,10,10,03,29,14.00
2015,10,10,03,30,14.00
2015,10,10,03,31,14.00
2015,10,10,03,32,14.00
2015,10,10,03,33,14.00
2015,10,10,03,34,14.00
2015,10,10,03,35,14.00
2015,10,10,03,36,14.00
2015,10,10,03,37,14.00
2015,10,10,03,38,14.00
2015,10,10,03,39,14.00
2015,10,10,03,40,14.00
2015,10,10,03,41,14.00
2015,10,10,03,42,14.00
2015,10,10,03,43,13.90
2015,10,10,03,44,13.90
2015,10,10,03,45,13.90
2015,10,10,03,46,13.90
2015,10,10,03,47,13.90
2015,10,10,03,48,13.90
2015,10,10,03,49,13.90
2015,10,10,03,50,13.80
2015,10,10,03,51,13.70
2015,10,10,03,52,13.60
2015,10,10,03,53,13.50
2015,10,10,03,54,13.40
2015,10,10,03,55,13.30
2015,10,10,03,56,13.20
2015,10,10,03,57,13.20
2015,10,10,03,58,13.10
2015,10,10,03,59,13.10
2015,10,10,04,00,13.10
2015,10,10,04,01,13.00
2015,10,10,04,02,13.00
2015,10,10,04,03,13.00
2015,10,10,04,04,12.90
2015,10,10,04,05,12.90
2015,10,10,04,06,12.90
2015,10,10,04,07,12.90
2015,10,10,04,08,12.90
2015,10,10,04,09,13.00
2015,10,10,04,10,13.00
2015,10,10,04,11,13.00
2015,10,10,04,12,13.00
2015,10,10,04,13,13.00
2015,10,10,04,14,13.00
2015,10,10,04,15,13.10
2015,10,10,04,16,13.10
2015,10,10,04,17,13.10
2015,10,10,04,18,13.10
2015,10,10,04,19,13.10
2015,10,10,04,20,13.10
2015,10,10,04,21,13.10
2015,10,10,04,22,13.10
2015,10,10,04,23,13.10
2015,10,10,04,24,13.10
2015,10,10,04,25,13.10
2015,10,10,04,26,13.10
2015,10,10,04,27,13.10
2015,10,10,04,28,13.20
2015,10,10,04,29,13.20
2015,10,10,04,30,13.20
2015,10,10,04,31,13.10
2015,10,10,04,32,13.10
2015,10,10,04,33,13.20
2015,10,10,04,34,13.10
2015,10,10,04,35,13.10
2015,10,10,04,36,13.20
2015,10,10,04,37,13.10
2015,10,10,04,38,13.20
2015,10,10,04,39,13.20
2015,10,10,04,40,13.10
2015,10,10,04,41,13.10
2015,10,10,04,42,13.10
2015,10,10,04,43,13.10
2015,10,10,04,44,13.20
2015,10,10,04,45,13.10
2015,10,10,04,46,13.10
2015,10,10,04,47,13.10
2015,10,10,04,48,13.20
2015,10,10,04,49,13.20
2015,10,10,04,50,13.20
2015,10,10,04,51,13.20
2015,10,10,04,52,13.20
2015,10,10,04,53,13.20
2015,10,10,04,54,13.20
2015,10,10,04,55,13.20
2015,10,10,04,56,13.20
2015,10,10,04,57,13.20
2015,10,10,04,58,13.20
2015,10,10,04,59,13.20
2015,10,10,05,00,13.20
2015,10,10,05,01,13.20
2015,10,10,05,02,13.20
2015,10,10,05,03,13.20
2015,10,10,05,04,13.20
2015,10,10,05,05,13.20
2015,10,10,05,06,13.20
2015,10,10,05,07,13.20
2015,10,10,05,08,13.20
2015,10,10,05,09,13.20
2015,10,10,05,10,13.20
2015,10,10,05,11,13.20
2015,10,10,05,12,13.20
2015,10,10,05,13,13.20
2015,10,10,05,14,13.20
2015,10,10,05,15,13.20
2015,10,10,05,16,13.20
2015,10,10,05,17,13.20
2015,10,10,05,18,13.20
2015,10,10,05,19,13.20
2015,10,10,05,20,13.20
2015,10,10,05,21,13.20
2015,10,10,05,22,13.20
2015,10,10,05,23,13.20
2015,10,10,05,24,13.20
2015,10,10,05,25,13.20
2015,10,10,05,26,13.20
2015,10,10,05,27,13.20
2015,10,10,05,28,13.20
2015,10,10,05,29,13.20
2015,10,10,05,30,13.10
2015,10,10,05,31,13.10
2015,10,10,05,32,13.10
2015,10,10,05,33,13.10
2015,10,10,05,34,13.10
2015,10,10,05,35,13.10
2015,10,10,05,36,13.10
2015,10,10,05,37,13.10
2015,10,10,05,38,13.10
2015,10,10,05,39,13.10
2015,10,10,05,40,13.10
2015,10,10,05,41,13.10
2015,10,10,05,42,13.10
2015,10,10,05,43,13.10
2015,10,10,05,44,13.20
2015,10,10,05,45,13.20
2015,10,10,05,46,13.20
2015,10,10,05,47,13.20
2015,10,10,05,48,13.20
2015,10,10,05,49,13.20
2015,10,10,05,50,13.20
2015,10,10,05,51,13.20
2015,10,10,05,52,13.20
2015,10,10,05,53,13.20
2015,10,10,05,54,13.20
2015,10,10,05,55,13.20
2015,10,10,05,56,13.20
2015,10,10,05,57,13.20
2015,10,10,05,58,13.30
2015,10,10,05,59,13.30
2015,10,10,06,00,13.30
2015,10,10,06,01,13.30
2015,10,10,06,02,13.30
2015,10,10,06,03,13.30
2015,10,10,06,04,13.30
2015,10,10,06,05,13.30
2015,10,10,06,06,13.30
2015,10,10,06,07,13.30
2015,10,10,06,08,13.30
2015,10,10,06,09,13.30
2015,10,10,06,10,13.30
2015,10,10,06,11,13.30
2015,10,10,06,12,13.30
2015,10,10,06,13,13.30
2015,10,10,06,14,13.30
2015,10,10,06,15,13.30
2015,10,10,06,16,13.30
2015,10,10,06,17,13.30
2015,10,10,06,18,13.30
2015,10,10,06,19,13.30
2015,10,10,06,20,13.30
2015,10,10,06,21,13.30
2015,10,10,06,22,13.30
2015,10,10,06,23,13.30
2015,10,10,06,24,13.30
2015,10,10,06,25,13.30
2015,10,10,06,26,13.30
2015,10,10,06,27,13.30
2015,10,10,06,28,13.30
2015,10,10,06,29,13.30
2015,10,10,06,30,13.30
2015,10,10,06,31,13.30
2015,10,10,06,32,13.30
2015,10,10,06,33,13.30
2015,10,10,06,34,13.30
2015,10,10,06,35,13.30
2015,10,10,06,36,13.30
2015,10,10,06,37,13.30
2015,10,10,06,38,13.40
2015,10,10,06,39,13.40
2015,10,10,06,40,13.40
2015,10,10,06,41,13.40
2015,10,10,06,42,13.40
2015,10,10,06,43,13.40
2015,10,10,06,44,13.40
2015,10,10,06,45,13.40
2015,10,10,06,46,13.40
2015,10,10,06,47,13.50
2015,10,10,06,48,13.50
2015,10,10,06,49,13.50
2015,10,10,06,50,13.50
2015,10,10,06,51,13.50
2015,10,10,06,52,13.50
2015,10,10,06,53,13.50
2015,10,10,06,54,13.60
2015,10,10,06,55,13.60
2015,10,10,06,56,13.60
2015,10,10,06,57,13.60
2015,10,10,06,58,13.60
2015,10,10,06,59,13.60
2015,10,10,07,00,13.60
2015,10,10,07,01,13.60
2015,10,10,07,02,13.50
2015,10,10,07,03,13.50
2015,10,10,07,04,13.50
2015,10,10,07,05,13.50
2015,10,10,07,06,13.50
2015,10,10,07,07,13.50
2015,10,10,07,08,13.50
2015,10,10,07,09,13.50
2015,10,10,07,10,13.60
2015,10,10,07,11,13.60
2015,10,10,07,12,13.60
2015,10,10,07,13,13.60
2015,10,10,07,14,13.60
2015,10,10,07,15,13.60
2015,10,10,07,16,13.60
2015,10,10,07,17,13.60
2015,10,10,07,18,13.60
2015,10,10,07,19,13.60
2015,10,10,07,20,13.60
2015,10,10,07,21,13.60
2015,10,10,07,22,13.60
2015,10,10,07,23,13.60
2015,10,10,07,24,13.50
2015,10,10,07,25,13.50
2015,10,10,07,26,13.50
2015,10,10,07,27,13.50
2015,10,10,07,28,13.50
2015,10,10,07,29,13.50
2015,10,10,07,30,13.50
2015,10,10,07,31,13.50
2015,10,10,07,32,13.50
2015,10,10,07,33,13.50
2015,10,10,07,34,13.50
2015,10,10,07,35,13.50
2015,10,10,07,36,13.50
2015,10,10,07,37,13.50
2015,10,10,07,38,13.50
2015,10,10,07,39,13.50
2015,10,10,07,40,13.50
2015,10,10,07,41,13.50
2015,10,10,07,42,13.50
2015,10,10,07,43,13.50
2015,10,10,07,44,13.50
2015,10,10,07,45,13.40
2015,10,10,07,46,13.40
2015,10,10,07,47,13.40
2015,10,10,07,48,13.40
2015,10,10,07,49,13.40
2015,10,10,07,50,13.30
2015,10,10,07,51,13.30
2015,10,10,07,52,13.30
2015,10,10,07,53,13.30
2015,10,10,07,54,13.30
2015,10,10,07,55,13.30
2015,10,10,07,56,13.30
2015,10,10,07,57,13.30
2015,10,10,07,58,13.30
2015,10,10,07,59,13.30
2015,10,10,08,00,13.30
2015,10,10,08,01,13.30
2015,10,10,08,02,13.30
2015,10,10,08,03,13.20
2015,10,10,08,04,13.20
2015,10,10,08,05,13.20
2015,10,10,08,06,13.20
2015,10,10,08,07,13.20
2015,10,10,08,08,13.20
2015,10,10,08,09,13.20
2015,10,10,08,10,13.20
2015,10,10,08,11,13.20
2015,10,10,08,12,13.20
2015,10,10,08,13,13.20
2015,10,10,08,14,13.20
2015,10,10,08,15,13.20
2015,10,10,08,16,13.20
2015,10,10,08,17,13.20
2015,10,10,08,18,13.20
2015,10,10,08,19,13.30
2015,10,10,08,20,13.20
2015,10,10,08,21,13.20
2015,10,10,08,22,13.20
2015,10,10,08,23,13.20
2015,10,10,08,24,13.20
2015,10,10,08,25,13.20
2015,10,10,08,26,13.20
2015,10,10,08,27,13.20
2015,10,10,08,28,13.20
2015,10,10,08,29,13.20
2015,10,10,08,30,13.20
2015,10,10,08,31,13.20
2015,10,10,08,32,13.20
2015,10,10,08,33,13.20
2015,10,10,08,34,13.20
2015,10,10,08,35,13.20
2015,10,10,08,36,13.20
2015,10,10,08,37,13.20
2015,10,10,08,38,13.20
2015,10,10,08,39,13.30
2015,10,10,08,40,13.30
2015,10,10,08,41,13.30
2015,10,10,08,42,13.30
2015,10,10,08,43,13.30
2015,10,10,08,44,13.30
2015,10,10,08,45,13.30
2015,10,10,08,46,13.30
2015,10,10,08,47,13.30
2015,10,10,08,48,13.20
2015,10,10,08,49,13.30
2015,10,10,08,50,13.30
2015,10,10,08,51,13.30
2015,10,10,08,52,13.30
2015,10,10,08,53,13.30
2015,10,10,08,54,13.30
2015,10,10,08,55,13.30
2015,10,10,08,56,13.30
2015,10,10,08,57,13.30
2015,10,10,08,58,13.30
2015,10,10,08,59,13.30
2015,10,10,09,00,13.30
2015,10,10,09,01,13.30
2015,10,10,09,02,13.30
2015,10,10,09,03,13.30
2015,10,10,09,04,13.30
2015,10,10,09,05,13.30
2015,10,10,09,06,13.30
2015,10,10,09,07,13.30
2015,10,10,09,08,13.30
2015,10,10,09,09,13.30
2015,10,10,09,10,13.30
2015,10,10,09,11,13.30
2015,10,10,09,12,13.30
2015,10,10,09,13,13.30
2015,10,10,09,14,13.30
2015,10,10,09,15,13.30
2015,10,10,09,16,13.30
2015,10,10,09,17,13.30
2015,10,10,09,18,13.30
2015,10,10,09,19,13.30
2015,10,10,09,20,13.30
2015,10,10,09,21,13.30
2015,10,10,09,22,13.30
2015,10,10,09,23,13.30
2015,10,10,09,24,13.40
2015,10,10,09,25,13.40
2015,10,10,09,26,13.40
2015,10,10,09,27,13.50
2015,10,10,09,28,13.50
2015,10,10,09,29,13.60
2015,10,10,09,30,13.60
2015,10,10,09,31,13.60
2015,10,10,09,32,13.60
2015,10,10,09,33,13.60
2015,10,10,09,34,13.50
2015,10,10,09,35,13.50
2015,10,10,09,36,13.60
2015,10,10,09,37,13.60
2015,10,10,09,38,13.60
2015,10,10,09,39,13.60
2015,10,10,09,40,13.60
2015,10,10,09,41,13.70
2015,10,10,09,42,13.70
2015,10,10,09,43,13.70
2015,10,10,09,44,13.70
2015,10,10,09,45,13.70
2015,10,10,09,46,13.70
2015,10,10,09,47,13.70
2015,10,10,09,48,13.80
2015,10,10,09,49,13.80
2015,10,10,09,50,13.80
2015,10,10,09,51,13.80
2015,10,10,09,52,13.80
2015,10,10,09,53,13.90
2015,10,10,09,54,14.00
2015,10,10,09,55,14.10
2015,10,10,09,56,14.10
2015,10,10,09,57,14.20
2015,10,10,09,58,14.20
2015,10,10,09,59,14.20
2015,10,10,10,00,14.20
2015,10,10,10,01,14.10
2015,10,10,10,02,14.10
2015,10,10,10,03,14.10
2015,10,10,10,04,14.10
2015,10,10,10,05,14.10
2015,10,10,10,06,14.10
2015,10,10,10,07,14.10
2015,10,10,10,08,14.10
2015,10,10,10,09,14.10
2015,10,10,10,10,14.10
2015,10,10,10,11,14.10
2015,10,10,10,12,14.20
2015,10,10,10,13,14.20
2015,10,10,10,14,14.20
2015,10,10,10,15,14.20
2015,10,10,10,16,14.30
2015,10,10,10,17,14.30
2015,10,10,10,18,14.40
2015,10,10,10,19,14.50
2015,10,10,10,20,14.50
2015,10,10,10,21,14.60
2015,10,10,10,22,14.60
2015,10,10,10,23,14.70
2015,10,10,10,24,14.70
2015,10,10,10,25,14.70
2015,10,10,10,26,14.70
2015,10,10,10,27,14.60
2015,10,10,10,28,14.60
2015,10,10,10,29,14.60
2015,10,10,10,30,14.60
2015,10,10,10,31,14.70
2015,10,10,10,32,14.70
2015,10,10,10,33,14.80
2015,10,10,10,34,14.80
2015,10,10,10,35,14.80
2015,10,10,10,36,14.80
2015,10,10,10,37,14.80
2015,10,10,10,38,14.80
2015,10,10,10,39,14.80
2015,10,10,10,40,14.90
2015,10,10,10,41,15.00
2015,10,10,10,42,15.00
2015,10,10,10,43,15.10
2015,10,10,10,44,15.10
2015,10,10,10,45,15.20
2015,10,10,10,46,15.20
2015,10,10,10,47,15.30
2015,10,10,10,48,15.30
2015,10,10,10,49,15.30
2015,10,10,10,50,15.40
2015,10,10,10,51,15.40
2015,10,10,10,52,15.40
2015,10,10,10,53,15.40
2015,10,10,10,54,15.40
2015,10,10,10,55,15.40
2015,10,10,10,56,15.40
2015,10,10,10,57,15.50
2015,10,10,10,58,15.50
2015,10,10,10,59,15.50
2015,10,10,11,00,15.50
2015,10,10,11,01,15.60
2015,10,10,11,02,15.60
2015,10,10,11,03,15.70
2015,10,10,11,04,15.70
2015,10,10,11,05,15.70
2015,10,10,11,06,15.70
2015,10,10,11,07,15.70
2015,10,10,11,08,15.80
2015,10,10,11,09,15.80
2015,10,10,11,10,15.90
2015,10,10,11,11,16.00
2015,10,10,11,12,16.10
2015,10,10,11,13,16.10
2015,10,10,11,14,16.20
2015,10,10,11,15,16.20
2015,10,10,11,16,16.30
2015,10,10,11,17,16.40
2015,10,10,11,18,16.40
2015,10,10,11,19,16.50
2015,10,10,11,20,16.60
2015,10,10,11,21,16.60
2015,10,10,11,22,16.70
2015,10,10,11,23,16.70
2015,10,10,11,24,16.70
2015,10,10,11,25,16.70
2015,10,10,11,26,16.70
2015,10,10,11,27,16.70
2015,10,10,11,28,16.80
2015,10,10,11,29,16.80
2015,10,10,11,30,16.80
2015,10,10,11,31,16.90
2015,10,10,11,32,17.00
2015,10,10,11,33,17.00
2015,10,10,11,34,17.10
2015,10,10,11,35,17.10
2015,10,10,11,36,17.10
2015,10,10,11,37,17.10
2015,10,10,11,38,17.10
2015,10,10,11,39,17.20
2015,10,10,11,40,17.20
2015,10,10,11,41,17.30
2015,10,10,11,42,17.30
2015,10,10,11,43,17.30
2015,10,10,11,44,17.30
2015,10,10,11,45,17.40
2015,10,10,11,46,17.50
2015,10,10,11,47,17.60
2015,10,10,11,48,17.60
2015,10,10,11,49,17.70
2015,10,10,11,50,17.70
2015,10,10,11,51,17.80
2015,10,10,11,52,17.80
2015,10,10,11,53,17.90
2015,10,10,11,54,17.90
2015,10,10,11,55,17.90
2015,10,10,11,56,17.80
2015,10,10,11,57,17.90
2015,10,10,11,58,17.90
2015,10,10,11,59,17.90
2015,10,10,12,00,17.90
2015,10,10,12,01,17.90
2015,10,10,12,02,17.90
2015,10,10,12,03,17.80
2015,10,10,12,04,17.90
2015,10,10,12,05,17.90
2015,10,10,12,06,17.90
2015,10,10,12,07,17.90
2015,10,10,12,08,17.90
2015,10,10,12,09,18.00
2015,10,10,12,10,17.90
2015,10,10,12,11,17.90
2015,10,10,12,12,17.90
2015,10,10,12,13,17.90
2015,10,10,12,14,17.90
2015,10,10,12,15,17.90
2015,10,10,12,16,17.90
2015,10,10,12,17,18.00
2015,10,10,12,18,18.00
2015,10,10,12,19,18.00
2015,10,10,12,20,18.00
2015,10,10,12,21,18.10
2015,10,10,12,22,18.10
2015,10,10,12,23,18.00
2015,10,10,12,24,18.00
2015,10,10,12,25,17.90
2015,10,10,12,26,17.90
2015,10,10,12,27,17.80
2015,10,10,12,28,17.80
2015,10,10,12,29,17.80
2015,10,10,12,30,17.80
2015,10,10,12,31,17.80
2015,10,10,12,32,17.70
2015,10,10,12,33,17.70
2015,10,10,12,34,17.70
2015,10,10,12,35,17.80
2015,10,10,12,36,17.80
2015,10,10,12,37,17.80
2015,10,10,12,38,17.80
2015,10,10,12,39,17.80
2015,10,10,12,40,17.70
2015,10,10,12,41,17.70
2015,10,10,12,42,17.70
2015,10,10,12,43,17.60
2015,10,10,12,44,17.60
2015,10,10,12,45,17.60
2015,10,10,12,46,17.60
2015,10,10,12,47,17.60
2015,10,10,12,48,17.60
2015,10,10,12,49,17.60
2015,10,10,12,50,17.60
2015,10,10,12,51,17.60
2015,10,10,12,52,17.60
2015,10,10,12,53,17.70
2015,10,10,12,54,17.70
2015,10,10,12,55,17.70
2015,10,10,12,56,17.70
2015,10,10,12,57,17.70
2015,10,10,12,58,17.70
2015,10,10,12,59,17.70
2015,10,10,13,00,17.60
2015,10,10,13,01,17.60
2015,10,10,13,02,17.60
2015,10,10,13,03,17.60
2015,10,10,13,04,17.60
2015,10,10,13,05,17.60
2015,10,10,13,06,17.60
2015,10,10,13,07,17.60
2015,10,10,13,08,17.60
2015,10,10,13,09,17.60
2015,10,10,13,10,17.60
2015,10,10,13,11,17.60
2015,10,10,13,12,17.60
2015,10,10,13,13,17.50
2015,10,10,13,14,17.50
2015,10,10,13,15,17.50
2015,10,10,13,16,17.40
2015,10,10,13,17,17.40
2015,10,10,13,18,17.40
2015,10,10,13,19,17.40
2015,10,10,13,20,17.40
2015,10,10,13,21,17.50
2015,10,10,13,22,17.50
2015,10,10,13,23,17.50
2015,10,10,13,24,17.50
2015,10,10,13,25,17.60
2015,10,10,13,26,17.60
2015,10,10,13,27,17.60
2015,10,10,13,28,17.60
2015,10,10,13,29,17.60
2015,10,10,13,30,17.60
2015,10,10,13,31,17.50
2015,10,10,13,32,17.50
2015,10,10,13,33,17.50
2015,10,10,13,34,17.50
2015,10,10,13,35,17.40
2015,10,10,13,36,17.40
2015,10,10,13,37,17.40
2015,10,10,13,38,17.40
2015,10,10,13,39,17.40
2015,10,10,13,40,17.40
2015,10,10,13,41,17.30
2015,10,10,13,42,17.30
2015,10,10,13,43,17.30
2015,10,10,13,44,17.20
2015,10,10,13,45,17.20
2015,10,10,13,46,17.10
2015,10,10,13,47,17.00
2015,10,10,13,48,16.90
2015,10,10,13,49,16.90
2015,10,10,13,50,16.80
2015,10,10,13,51,16.80
2015,10,10,13,52,16.70
2015,10,10,13,53,16.60
2015,10,10,13,54,16.60
2015,10,10,13,55,16.50
2015,10,10,13,56,16.40
2015,10,10,13,57,16.40
2015,10,10,13,58,16.30
2015,10,10,13,59,16.20
2015,10,10,14,00,16.20
2015,10,10,14,01,16.10
2015,10,10,14,02,16.10
2015,10,10,14,03,16.00
2015,10,10,14,04,16.00
2015,10,10,14,05,16.00
2015,10,10,14,06,16.00
2015,10,10,14,07,16.00
2015,10,10,14,08,16.00
2015,10,10,14,09,16.00
2015,10,10,14,10,16.00
2015,10,10,14,11,16.00
2015,10,10,14,12,16.00
2015,10,10,14,13,16.00
2015,10,10,14,14,16.00
2015,10,10,14,15,15.90
2015,10,10,14,16,15.90
2015,10,10,14,17,15.90
2015,10,10,14,18,15.80
2015,10,10,14,19,15.80
2015,10,10,14,20,15.70
2015,10,10,14,21,15.70
2015,10,10,14,22,15.60
2015,10,10,14,23,15.60
2015,10,10,14,24,15.50
2015,10,10,14,25,15.40
2015,10,10,14,26,15.30
2015,10,10,14,27,15.20
2015,10,10,14,28,15.10
2015,10,10,14,29,15.00
2015,10,10,14,30,15.00
2015,10,10,14,31,14.90
2015,10,10,14,32,14.90
2015,10,10,14,33,14.90
2015,10,10,14,34,14.90
2015,10,10,14,35,14.90
2015,10,10,14,36,14.80
2015,10,10,14,37,14.80
2015,10,10,14,38,14.80
2015,10,10,14,39,14.80
2015,10,10,14,40,14.70
2015,10,10,14,41,14.70
2015,10,10,14,42,14.70
2015,10,10,14,43,14.70
2015,10,10,14,44,14.70
2015,10,10,14,45,14.80
2015,10,10,14,46,14.80
2015,10,10,14,47,14.80
2015,10,10,14,48,14.90
2015,10,10,14,49,14.80
2015,10,10,14,50,14.80
2015,10,10,14,51,14.80
2015,10,10,14,52,14.80
2015,10,10,14,53,14.80
2015,10,10,14,54,14.80
2015,10,10,14,55,14.80
2015,10,10,14,56,14.80
2015,10,10,14,57,14.80
2015,10,10,14,58,14.80
2015,10,10,14,59,14.80
2015,10,10,15,00,14.80
2015,10,10,15,01,14.80
2015,10,10,15,02,14.70
2015,10,10,15,03,14.70
2015,10,10,15,04,14.70
2015,10,10,15,05,14.70
2015,10,10,15,06,14.70
2015,10,10,15,07,14.70
2015,10,10,15,08,14.70
2015,10,10,15,09,14.70
2015,10,10,15,10,14.70
2015,10,10,15,11,14.70
2015,10,10,15,12,14.70
2015,10,10,15,13,14.60
2015,10,10,15,14,14.60
2015,10,10,15,15,14.60
2015,10,10,15,16,14.60
2015,10,10,15,17,14.60
2015,10,10,15,18,14.70
2015,10,10,15,19,14.70
2015,10,10,15,20,14.70
2015,10,10,15,21,14.60
2015,10,10,15,22,14.60
2015,10,10,15,23,14.60
2015,10,10,15,24,14.60
2015,10,10,15,25,14.50
2015,10,10,15,26,14.50
2015,10,10,15,27,14.50
2015,10,10,15,28,14.40
2015,10,10,15,29,14.40
2015,10,10,15,30,14.40
2015,10,10,15,31,14.30
2015,10,10,15,32,14.30
2015,10,10,15,33,14.30
2015,10,10,15,34,14.30
2015,10,10,15,35,14.30
2015,10,10,15,36,14.30
2015,10,10,15,37,14.30
2015,10,10,15,38,14.30
2015,10,10,15,39,14.30
2015,10,10,15,40,14.20
2015,10,10,15,41,14.20
2015,10,10,15,42,14.20
2015,10,10,15,43,14.20
2015,10,10,15,44,14.20
2015,10,10,15,45,14.20
2015,10,10,15,46,14.20
2015,10,10,15,47,14.20
2015,10,10,15,48,14.20
2015,10,10,15,49,14.10
2015,10,10,15,50,14.10
2015,10,10,15,51,14.10
2015,10,10,15,52,14.10
2015,10,10,15,53,14.00
2015,10,10,15,54,13.90
2015,10,10,15,55,13.90
2015,10,10,15,56,13.80
2015,10,10,15,57,13.80
2015,10,10,15,58,13.80
2015,10,10,15,59,13.70
2015,10,10,16,00,13.70
2015,10,10,16,01,13.60
2015,10,10,16,02,13.60
2015,10,10,16,03,13.50
2015,10,10,16,04,13.50
2015,10,10,16,05,13.40
2015,10,10,16,06,13.40
2015,10,10,16,07,13.40
2015,10,10,16,08,13.30
2015,10,10,16,09,13.30
2015,10,10,16,10,13.30
2015,10,10,16,11,13.30
2015,10,10,16,12,13.30
2015,10,10,16,13,13.30
2015,10,10,16,14,13.30
2015,10,10,16,15,13.40
2015,10,10,16,16,13.50
2015,10,10,16,17,13.60
2015,10,10,16,18,13.70
2015,10,10,16,19,13.70
2015,10,10,16,20,13.80
2015,10,10,16,21,13.80
2015,10,10,16,22,13.90
2015,10,10,16,23,13.90
2015,10,10,16,24,13.90
2015,10,10,16,25,13.90
2015,10,10,16,26,13.90
2015,10,10,16,27,13.90
2015,10,10,16,28,13.90
2015,10,10,16,29,13.90
2015,10,10,16,30,13.90
2015,10,10,16,31,13.90
2015,10,10,16,32,13.90
2015,10,10,16,33,14.00
2015,10,10,16,34,14.00
2015,10,10,16,35,14.00
2015,10,10,16,36,14.10
2015,10,10,16,37,14.10
2015,10,10,16,38,14.10
2015,10,10,16,39,14.10
2015,10,10,16,40,14.10
2015,10,10,16,41,14.10
2015,10,10,16,42,14.10
2015,10,10,16,43,14.10
2015,10,10,16,44,14.10
2015,10,10,16,45,14.10
2015,10,10,16,46,14.20
2015,10,10,16,47,14.20
2015,10,10,16,48,14.20
2015,10,10,16,49,14.20
2015,10,10,16,50,14.30
2015,10,10,16,51,14.30
2015,10,10,16,52,14.30
2015,10,10,16,53,14.30
2015,10,10,16,54,14.30
2015,10,10,16,55,14.30
2015,10,10,16,56,14.30
2015,10,10,16,57,14.30
2015,10,10,16,58,14.30
2015,10,10,16,59,14.30
2015,10,10,17,00,14.30
2015,10,10,17,01,14.30
2015,10,10,17,02,14.30
2015,10,10,17,03,14.30
2015,10,10,17,04,14.30
2015,10,10,17,05,14.30
2015,10,10,17,06,14.30
2015,10,10,17,07,14.30
2015,10,10,17,08,14.30
2015,10,10,17,09,14.30
2015,10,10,17,10,14.30
2015,10,10,17,11,14.30
2015,10,10,17,12,14.30
2015,10,10,17,13,14.30
2015,10,10,17,14,14.30
2015,10,10,17,15,14.40
2015,10,10,17,16,14.40
2015,10,10,17,17,14.40
2015,10,10,17,18,14.40
2015,10,10,17,19,14.40